Back to catalog

DMSP 5D-2 F8 DEB

AliveSSO
NORAD 60251·DEBRIS·🇺🇸 United States

Launched Jun 20, 1987 from Vandenberg Space Force Base

Loading…

Next Passes (next 24 hours)

TLE

FreshSource: Space-Track

Epoch: Sep 14, 2026, 12:48 UTC

1 60251U 87053J   26257.53348740  .00001641  00000-0  68701-3 0  9990
2 60251  98.7266  89.5241 0015049 210.1891 149.8424 14.27379189111987

Track DMSP 5D-2 F8 DEB in real time with AllMySat

Download on the App Store